CAPE
1 0 0 0 0 0 0 0 0 0 0 0 0 0 0 0 0 0 0 0 0 0 0 0 0 0 0 0 0 0 0 0 0 0 0 0 0 0 0 0 0 0 0 0 0
0 0 0 0 0 0 0 0 0 0 0 0 0 0 0 0 0 0 0 0 0 0 0 0 0 0 0 0 0 0 0 0 0 0 0 0 0 0 0 0 0 0 0 0 0
0 0 0 0 0 0 0 0 0 0 0 0 0 0 0 0 0 0 0 0 0 0 0 0 0 0 0 0 0 0 0 0 0 0 0 0 0 0 0 0 0 0 0 0 0
0 0 0 0 0 0 0 0 0 0 0 0 0 0 0 0 0 0 0 0 0 0 0 0 0 0 0 0 0 0 0 0 0 0 0 0 0 0 0 0 0 0 0 0 0
0 0 0 0 0 0 0 0 0 0 0 0 0 0 0 0 0 0 0 0 0 0 0 0 0 0 0 0 0 0 0 0 0 0 0 0 0 0 0 0 0 0 0 0 0
0 0 0 0 0 0 0 0 0 0 0 0 0 0 0 0 0 0 0 0 0 0 0 0 0 0 0 0 0 0 0 0 0 0 0 0 0 0 0 0 0 0 0 0 0
0 0 0 0 0 0 0 0 0 0 0 0 0 0 0 0 0 0 0 0 0 0 0 0 0 0 0 0 0 0 0 0 0 0 0 0 0 0 0 0 0 0 0 0 0
0 0 0 0 0 0 0 0 0 0 0 0 0 0 0 0 0 0 0 0 0 0 0 0 0 0 0 0 0 0 0 0 0 0 0 0 0 0 0 0 0 0 0 0 0
0 0 0 0 0 0 0 0 0 0 0 0 0 0 0 0 0 0 0 0 0 0 0 0 0 0 0 0 0 0 0 0 0 0 0 0 0 0 0 0 0 0 0 0 0
0 0 0 0 0 0 0 0 0 0 0 0 0 0 0 0 0 0 0 0 0 0 0 0 0 0 0 0 0 0 0 0 0 0 0 0 0 0 0 0 4 9 6 3 0
0 0 0 0 0 0 0 0 0 0 0 0 0 0 0 0 0 0 0 0 0 0 0 0 0 0 0 0 0 0 0 0 0 0 0 0 0 0 8 48 36 60 31 28 12
0 0 0 0 0 0 0 0 0 0 0 0 0 0 0 0 0 0 0 0 0 0 0 0 0 0 0 0 0 0 0 0 0 0 0 0 0 12 61 78 57 10 0 0 0
0 0 0 0 0 0 0 0 0 0 0 0 0 0 0 0 0 0 0 0 0 0 0 0 0 0 0 0 0 0 0 0 0 0 0 0 2 71 170 59 56 40 26 8 8
0 0 0 0 0 0 0 0 0 0 0 0 0 0 0 0 0 0 0 0 0 0 0 0 0 0 0 0 0 0 0 0 0 0 0 0 37 226 98 90 30 0 0 0 0
0 0 0 0 0 0 0 0 0 0 0 0 0 0 0 0 0 0 0 0 0 0 0 0 0 0 0 0 0 0 0 0 0 0 0 3 199 234 105 22 0 0 0 0 0
0 0 0 0 0 0 0 0 0 0 0 0 0 0 0 0 0 0 0 0 0 0 0 0 0 0 0 0 0 0 0 1 0 0 8 87 0 1 39 0 0 0 0 0 0
0 0 0 0 0 0 0 0 0 0 0 0 0 0 0 0 0 0 0 0 0 0 0 0 1 0 0 0 0 0 16 0 0 0 4 0 0 97 17 1 1 0 0 0 0
0 0 0 0 0 0 0 0 0 1 0 0 0 0 0 0 0 0 0 0 0 0 0 0 3 0 0 0 0 0 62 0 0 0 0 0 70 22 8 3 0 0 0 0 0
0 0 0 0 0 0 0 0 0 0 0 0 0 0 0 0 0 0 0 0 0 0 0 0 0 0 0 0 0 8 32 15 0 0 0 0 6 133 0 0 0 0 0 0 1
0 0 0 0 0 0 0 0 0 0 0 0 0 0 0 0 0 0 0 0 0 0 0 0 0 0 0 0 1 22 53 49 44 0 1 0 0 31 0 2 0 0 0 0 1
0 0 0 0 0 0 0 0 0 0 0 0 0 0 0 0 0 0 0 0 0 0 0 0 0 0 0 0 20 47 25 46 29 29 27 0 0 39 7 0 0 0 0 2 2
0 0 0 0 0 0 0 0 0 0 0 0 0 0 0 0 0 0 1 0 0 0 0 0 0 0 0 0 18 67 52 25 33 3 25 6 0 7 3 0 0 0 1 1 2
0 0 0 0 0 0 0 0 0 0 0 0 0 0 0 0 0 0 0 3 0 0 0 0 0 0 0 4 0 0 3 11 28 57 27 7 0 1 6 0 4 0 0 1 3
0 0 0 0 0 0 0 0 0 0 0 0 0 0 0 0 0 1 4 0 0 0 0 0 1 16 3 8 5 0 3 34 22 25 4 30 7 12 0 2 2 0 0 1 3
0 0 0 0 0 0 0 0 0 0 0 0 0 0 0 0 0 0 0 0 0 0 0 3 4 10 5 0 1 7 17 20 56 14 7 5 8 17 4 14 6 0 1 2 3
0 0 0 0 0 0 0 0 0 0 0 0 0 0 0 0 0 0 0 0 0 0 0 2 0 11 4 2 5 19 64 91 6 0 14 23 5 0 10 14 0 0 0 2 3
0 0 0 0 0 0 0 0 0 0 0 0 0 0 0 0 0 0 0 0 0 0 0 2 5 3 6 8 2 0 20 18 15 25 33 8 4 6 0 0 3 0 1 2 3
CIN
-0 -0 -0 -0 -0 -0 -0 -0 -0 -0 -0 -0 -0 -0 -0 -0 -0 -0 -0 -0 -0 -0 -0 -0 -0 -0 -0 -0 -0 -0 -0 -0 -0 -0 -0 -0 -0 -0 -0 -0 -0 -0 -0 -0 -0
-0 -0 -0 -0 -0 -0 -0 -0 -0 -0 -0 -0 -0 -0 -0 -0 -0 -0 -0 -0 -0 -0 -0 -0 -0 -0 -0 -0 -0 -0 -0 -0 -0 -0 -0 -0 -0 -0 -0 -0 -0 -0 -0 -0 -0
-0 -0 -0 -0 -0 -0 -0 -0 -0 -0 -0 -0 -0 -0 -0 -0 -0 -0 -0 -0 -0 -0 -0 -0 -0 -0 -0 -0 -0 -0 -0 -0 -0 -0 -0 -0 -0 -0 -0 -0 -0 -0 -0 -0 -0
-0 -0 -0 -0 -0 -0 -0 -0 -0 -0 -0 -0 -0 -0 -0 -0 -0 -0 -0 -0 -0 -0 -0 -0 -0 -0 -0 -0 -0 -0 -0 -0 -0 -0 -0 -0 -0 -0 -0 -0 -0 -0 -0 -0 -0
-0 -0 -0 -0 -0 -0 -0 -0 -0 -0 -0 -0 -0 -0 -0 -0 -0 -0 -0 -0 -0 -0 -0 -0 -0 -0 -0 -0 -0 -0 -0 -0 -0 -0 -0 -0 -0 -0 -0 -0 -0 -0 -0 -0 -0
-0 -0 -0 -0 -0 -0 -0 -0 -0 -0 -0 -0 -0 -0 -0 -0 -0 -0 -0 -0 -0 -0 -0 -0 -0 -0 -0 -0 -0 -0 -0 -0 -0 -0 -0 -0 -0 -0 -0 -0 -0 -0 -0 -0 -0
-0 -0 -0 -0 -0 -0 -0 -0 -0 -0 -0 -0 -0 -0 -0 -0 -0 -0 -0 -0 -0 -0 -0 -0 -0 -0 -0 -0 -0 -0 -0 -0 -0 -0 -0 -0 -0 -0 -0 -0 -0 -0 -0 -0 -0
-0 -0 -0 -0 -0 -0 -0 -0 -0 -0 -0 -0 -0 -0 -0 -0 -0 -0 -0 -0 -0 -0 -0 -0 -0 -0 -0 -0 -0 -0 -0 -0 -0 -0 -0 -0 -0 -0 -0 -0 -0 -0 -0 -0 -0
-0 -0 -0 -0 -0 -0 -0 -0 -0 -0 -0 -0 -0 -0 -0 -0 -0 -0 -0 -0 -0 -0 -0 -0 -0 -0 -0 -0 -0 -0 -0 -0 -0 -0 -0 -0 -0 -0 -0 -0 -0 -0 -0 -0 -0
-0 -0 -0 -0 -0 -0 -0 -0 -0 -0 -0 -0 -0 -0 -0 -0 -0 -0 -0 -0 -0 -0 -0 -0 -0 -0 -0 -0 -0 -0 -0 -0 -0 -0 -0 -0 -0 -0 -0 -0 -90 -115 -70 -74 -0
-0 -0 -0 -0 -0 -0 -0 -0 -0 -0 -0 -0 -0 -0 -0 -0 -0 -0 -0 -0 -0 -0 -0 -0 -0 -0 -0 -0 -0 -0 -0 -0 -0 -0 -0 -0 -0 -0 -115 -27 -37 -49 -77 -92 -122
-0 -0 -0 -0 -0 -0 -0 -0 -0 -0 -0 -0 -0 -0 -0 -0 -0 -0 -0 -0 -0 -0 -0 -0 -0 -0 -0 -0 -0 -0 -0 -0 -0 -0 -0 -0 -0 -77 -9 -16 -16 -55 -0 -0 -0
-0 -0 -0 -0 -0 -0 -0 -0 -0 -0 -0 -0 -0 -0 -0 -0 -0 -0 -0 -0 -0 -0 -0 -0 -0 -0 -0 -0 -0 -0 -0 -0 -0 -0 -0 -0 -3 -3 -6 -43 -79 -124 -185 -171 -96
-0 -0 -0 -0 -0 -0 -0 -0 -0 -0 -0 -0 -0 -0 -0 -0 -0 -0 -0 -0 -0 -0 -0 -0 -0 -0 -0 -0 -0 -0 -0 -0 -0 -0 -0 -0 -25 -3 -47 -47 -132 -0 -0 -0 -0
-0 -0 -0 -0 -0 -0 -0 -0 -0 -0 -0 -0 -0 -0 -0 -0 -0 -0 -0 -0 -0 -0 -0 -0 -0 -0 -0 -0 -0 -0 -0 -0 -0 -0 -0 -21 -8 -3 -8 -140 -0 -0 -0 -0 -0
-0 -0 -0 -0 -0 -0 -0 -0 -0 -0 -0 -0 -0 -0 -0 -0 -0 -0 -0 -0 -0 -0 -0 -0 -0 -0 -0 -0 -0 -0 -0 -3 -0 -0 -6 -11 -0 -11 -56 -0 -0 -0 -0 -0 -0
-0 -0 -0 -0 -0 -0 -0 -0 -0 -0 -0 -0 -0 -0 -0 -0 -0 -0 -0 -0 -0 -0 -0 -0 -4 -0 -0 -0 -0 -0 -5 -0 -0 -0 -7 -0 -0 -79 -70 -2 -2 -0 -0 -0 -0
-0 -0 -0 -0 -0 -0 -0 -0 -0 -1 -0 -0 -0 -0 -0 -0 -0 -0 -0 -0 -0 -0 -0 -0 -5 -0 -0 -0 -0 -0 -9 -3 -0 -0 -0 -0 -20 -34 -29 -38 -0 -0 -0 -1 -0
-0 -0 -0 -0 -0 -0 -0 -0 -0 -0 -0 -0 -0 -0 -0 -0 -0 -0 -0 -0 -0 -0 -0 -0 -0 -0 -0 -1 -0 -2 -6 -4 -0 -0 -0 -19 -22 -32 -0 -0 -0 -0 -0 -0 -0
-0 -0 -0 -0 -0 -0 -0 -0 -0 -0 -0 -0 -0 -0 -0 -0 -0 -0 -0 -0 -0 -0 -0 -0 -0 -0 -0 -0 -9 -14 -8 -5 -5 -1 -2 -0 -0 -7 -0 -2 -1 -0 -0 -0 -0
-0 -0 -0 -0 -0 -0 -0 -0 -0 -0 -0 -0 -0 -0 -0 -0 -0 -0 -0 -0 -0 -0 -0 -0 -0 -0 -0 -1 -4 -8 -28 -3 -3 -2 -3 -0 -0 -5 -7 -0 -0 -0 -0 -0 -0
-0 -0 -0 -0 -0 -0 -0 -0 -0 -0 -0 -0 -0 -0 -0 -0 -0 -0 -1 -0 -0 -0 -0 -0 -0 -0 -0 -0 -9 -2 -9 -2 -2 -6 -3 -17 -0 -10 -7 -0 -0 -0 -0 -0 -0
-0 -0 -0 -0 -0 -0 -0 -0 -0 -0 -0 -0 -0 -0 -0 -0 -0 -1 -0 -3 -0 -0 -0 -0 -0 -0 -0 -37 -1 -0 -1 -6 -6 -7 -4 -1 -0 -1 -7 -0 -1 -0 -0 -0 -0
-0 -0 -0 -0 -0 -0 -0 -0 -0 -0 -0 -0 -0 -0 -0 -0 -0 -0 -2 -1 -0 -0 -0 -0 -1 -1 -2 -2 -2 -0 -13 -2 -6 -4 -1 -4 -1 -1 -0 -6 -15 -0 -0 -0 -0
-0 -0 -0 -0 -0 -0 -0 -0 -0 -0 -0 -0 -0 -0 -0 -0 -0 -0 -0 -0 -0 -0 -0 -6 -2 -1 -1 -0 -1 -1 -2 -5 -4 -7 -10 -2 -1 -1 -2 -7 -17 -0 -0 -0 -0
-0 -0 -0 -0 -0 -0 -0 -0 -0 -0 -0 -0 -0 -0 -0 -0 -0 -0 -0 -0 -0 -0 -0 -2 -1 -2 -2 -6 -4 -7 -18 -5 -2 -0 -1 -2 -1 -0 -2 -3 -0 -0 -0 -0 -0
-0 -0 -0 -0 -0 -0 -0 -0 -0 -0 -0 -0 -0 -0 -0 -0 -0 -0 -0 -0 -0 -0 -0 -2 -2 -9 -1 -2 -6 -3 -43 -2 -4 -1 -6 -1 -4 -3 -0 -3 -12 -0 -0 -0 -0
Wind_Speed
7 6 8 7 6 7 7 7 11 12 11 10 10 10 11 12 8 13 26 21 20 24 25 22 18 19 15 13 14 16 22 25 26 28 28 27 27 22 20 30 30 31 33 32 36
23 25 13 9 7 6 7 7 7 9 10 10 11 13 14 14 7 23 21 20 21 23 25 23 21 21 14 15 15 14 17 22 23 26 28 29 29 31 34 36 37 37 37 36 38
24 10 4 7 7 7 7 10 11 11 10 12 15 17 17 8 15 20 18 18 17 12 3 17 20 19 20 16 14 17 19 30 27 28 28 30 31 30 33 35 33 36 35 37 38
20 2 10 9 7 5 6 7 8 8 8 7 4 6 3 17 24 19 18 17 13 6 6 23 24 22 18 16 15 22 23 27 28 29 31 32 32 34 33 34 33 34 34 34 38
25 27 15 13 12 9 7 6 7 7 8 8 11 17 21 16 22 17 17 12 10 7 24 24 25 23 19 27 22 26 28 27 27 30 30 29 31 34 33 32 30 31 32 33 35
26 26 26 14 10 8 5 5 7 7 6 6 10 16 16 20 21 15 14 12 4 8 23 21 24 25 23 19 25 29 32 29 29 27 25 26 29 30 30 28 28 27 27 28 31
29 27 25 1 8 6 3 5 6 7 6 7 14 16 12 17 23 15 10 6 7 10 16 19 25 21 25 28 17 25 28 27 21 17 17 22 27 24 21 23 22 27 28 31 31
32 30 28 21 9 2 2 3 5 5 5 6 13 14 14 16 20 16 17 11 6 10 8 13 13 20 15 14 16 19 18 22 21 12 20 23 30 25 24 25 29 29 28 23 20
33 31 30 30 16 3 1 3 4 7 7 10 12 13 15 15 24 29 8 21 13 9 8 7 11 14 16 17 18 15 16 25 28 34 34 29 30 25 31 26 27 21 19 18 18
35 34 31 31 28 8 4 10 14 10 9 9 5 14 8 24 28 22 11 20 17 18 15 6 10 13 13 14 27 32 30 30 30 34 31 29 31 39 39 42 44 32 27 25 22
36 35 32 30 27 21 21 16 21 16 13 11 18 12 17 24 14 20 22 26 18 17 21 18 18 21 23 23 24 25 24 25 29 33 36 34 38 41 37 31 37 31 34 34 34
35 34 33 30 23 11 15 20 26 17 22 9 10 9 10 16 25 21 26 29 28 26 21 18 16 15 20 21 22 22 24 26 33 34 36 35 28 36 36 29 33 32 32 31 34
35 34 33 30 20 13 10 20 19 18 18 18 11 12 16 16 25 22 27 28 27 25 24 24 16 20 20 21 23 25 27 31 38 38 33 29 35 35 31 27 30 33 33 32 32
37 35 33 31 18 18 17 24 20 20 21 15 15 16 17 22 17 27 23 25 24 27 27 20 12 18 21 22 24 26 31 34 37 40 38 36 33 32 25 26 31 34 38 42 43
37 35 31 24 12 17 22 22 22 16 25 17 17 18 17 19 23 19 23 21 23 29 21 17 24 21 22 23 27 26 28 34 40 44 40 29 28 27 27 30 33 38 41 45 48
36 34 35 18 12 7 23 20 15 19 21 17 17 23 26 22 28 21 25 14 19 27 21 12 14 11 19 23 22 34 28 40 41 13 14 20 35 34 24 33 38 43 48 51 54
38 34 14 11 11 22 19 16 20 20 18 21 25 27 26 23 26 25 28 26 27 33 32 28 23 15 18 24 30 33 34 31 26 28 30 40 35 23 28 35 40 50 56 59 55
41 31 15 8 11 16 16 16 21 21 24 25 30 25 22 24 25 27 28 23 27 29 28 28 25 28 31 31 30 34 21 22 26 32 38 37 22 29 21 38 46 53 58 57 54
39 23 14 14 17 15 16 19 22 25 24 27 28 26 23 26 29 29 29 21 24 28 28 27 24 34 10 21 24 23 26 26 22 22 23 25 26 20 40 46 52 57 59 57 49
35 22 18 19 17 16 16 16 21 22 24 23 23 22 27 28 29 29 25 22 22 25 28 23 31 18 22 13 13 14 19 22 24 26 26 31 34 37 45 49 54 60 57 55 48
22 19 19 19 13 15 16 22 20 22 23 22 22 22 23 25 29 28 23 22 24 26 26 26 22 18 15 19 21 9 21 26 25 20 27 32 33 34 43 51 56 59 52 53 51
21 21 22 18 16 14 21 21 20 19 19 19 18 20 21 26 26 24 24 24 28 26 28 26 20 22 13 17 16 19 29 28 24 27 29 32 31 36 47 51 54 56 51 53 48
23 19 19 17 22 21 20 18 18 19 20 19 19 19 23 21 24 22 23 22 25 21 23 27 21 31 26 16 18 35 22 4 17 25 28 33 24 37 46 51 50 47 50 50 45
20 20 18 17 19 20 22 18 19 17 18 17 18 17 18 23 17 21 10 27 31 28 19 20 18 20 16 7 18 18 9 8 28 29 34 35 35 41 48 51 49 50 39 47 42
17 20 18 19 20 21 18 18 17 18 17 18 17 14 22 20 19 14 30 33 26 18 15 16 19 13 14 19 15 12 11 3 18 31 31 37 38 42 48 25 42 31 29 34 43
22 21 22 18 15 17 15 16 17 18 20 19 13 19 17 14 10 16 32 18 16 11 18 14 8 26 16 18 18 25 28 20 22 32 36 34 37 39 42 45 45 43 36 30 17
24 22 17 18 16 15 17 17 20 23 19 16 20 20 15 17 28 16 10 6 4 3 5 8 14 27 23 22 24 28 15 23 26 29 30 33 39 39 45 36 40 45 41 38 19
Wind_Direction
300 132 123 134 174 155 179 231 270 274 261 251 252 254 261 268 243 69 11 18 4 320 315 316 319 341 341 338 331 326 305 301 302 303 304 316 312 318 321 299 298 292 291 291 284
348 46 93 113 140 206 234 226 226 233 241 248 259 268 273 276 104 23 36 28 12 347 331 343 336 334 337 340 335 326 312 311 326 318 315 313 313 310 306 299 294 291 290 289 285
346 304 143 126 138 141 227 255 259 261 249 258 276 282 277 255 42 26 42 36 37 46 93 357 344 338 323 332 327 329 310 307 318 321 319 315 312 313 307 301 301 296 297 290 288
331 222 97 101 119 163 180 178 181 170 132 132 159 229 179 47 359 31 38 37 48 83 77 352 337 332 329 330 331 314 316 313 316 319 316 313 314 310 308 305 305 301 299 296 289
343 8 74 78 84 97 116 154 176 154 109 94 64 36 21 35 16 40 40 58 60 79 354 345 333 332 328 310 318 313 314 315 319 318 317 316 311 311 310 311 310 307 302 295 292
342 342 5 69 79 90 120 141 151 150 135 106 59 30 31 6 21 51 55 53 87 55 359 358 338 327 327 328 317 315 315 319 319 319 320 316 316 318 317 318 314 311 307 302 296
346 338 326 139 78 85 125 173 163 151 115 78 37 29 32 23 18 39 58 66 60 43 15 0 336 342 327 324 337 328 324 324 320 323 330 326 317 314 320 323 319 318 313 304 299
344 339 333 305 268 218 165 136 133 105 84 56 39 41 33 36 27 31 24 43 49 41 25 14 7 343 345 341 332 326 326 326 351 358 336 330 317 322 322 318 317 314 317 317 311
339 331 328 324 287 252 68 76 89 60 54 42 38 43 19 35 1 340 50 9 18 19 14 19 10 356 351 342 338 334 309 327 325 323 322 319 316 320 312 314 305 313 310 302 301
336 330 321 315 304 269 34 35 28 36 43 44 68 21 53 357 351 13 41 10 5 7 6 4 353 342 335 332 328 331 328 325 324 323 322 320 317 298 293 282 279 313 313 311 304
332 328 320 310 300 15 15 29 17 23 26 11 3 14 11 359 23 9 9 0 9 4 347 357 341 337 341 343 338 335 330 326 325 323 320 319 312 284 270 318 316 324 318 315 314
326 323 319 307 291 37 28 21 3 10 358 11 17 24 24 14 355 4 1 353 349 344 350 346 330 343 350 345 338 333 328 327 323 324 321 318 309 265 294 326 324 321 323 322 317
321 318 316 305 281 30 47 16 19 21 5 22 50 28 16 12 355 2 359 354 351 349 350 340 337 348 344 339 336 332 331 329 320 317 320 319 314 306 325 332 332 331 329 326 328
317 314 312 305 21 21 24 4 14 15 4 27 31 25 11 4 5 359 7 1 358 349 345 348 7 352 344 340 339 333 329 324 320 316 314 309 316 313 333 333 329 325 317 315 306
314 310 303 355 32 28 9 10 9 26 353 21 19 16 12 4 359 12 6 6 354 349 354 341 338 344 343 341 338 334 332 325 312 284 287 314 316 313 330 329 328 330 328 322 314
308 304 305 16 25 41 7 14 28 8 353 15 16 3 357 0 355 4 0 7 4 354 351 343 342 339 349 342 343 328 333 312 305 261 323 329 307 311 327 326 327 326 322 322 319
306 298 293 12 21 3 12 18 3 358 14 4 357 355 352 359 359 360 357 -0 0 353 352 353 11 19 1 351 335 330 332 336 341 331 317 297 308 324 327 330 330 325 320 318 315
306 293 18 41 24 18 13 8 352 360 358 357 350 351 353 359 360 357 354 357 5 0 354 357 351 353 329 336 338 332 2 355 340 329 315 300 321 321 344 332 329 328 329 327 319
308 4 20 36 22 25 11 355 351 354 354 349 351 354 356 356 354 355 356 6 2 1 357 351 347 292 4 353 347 351 347 346 347 347 342 326 315 331 328 327 326 325 334 333 334
342 4 19 22 24 16 5 355 355 7 358 359 355 1 351 352 354 353 360 9 6 1 358 358 333 5 350 349 358 5 1 355 354 346 341 300 299 317 318 327 325 328 334 334 338
5 7 20 20 36 15 2 360 0 6 8 4 358 357 356 356 351 354 1 7 3 357 360 358 1 359 0 357 356 31 1 350 345 352 321 290 314 336 335 330 331 332 335 336 333
1 1 11 23 10 17 4 4 4 7 10 9 8 4 1 354 352 356 356 355 353 1 355 4 5 0 270 359 15 9 347 349 354 338 282 305 315 335 334 334 339 336 343 341 329
351 354 24 24 1 2 10 9 16 8 6 8 5 6 357 4 359 357 357 2 357 13 4 3 7 346 354 34 353 314 348 305 259 274 288 316 334 309 339 338 350 354 347 338 329
353 353 6 16 14 3 0 10 7 18 11 15 7 13 15 4 16 0 12 344 336 348 18 18 15 6 6 269 266 267 273 249 295 307 310 316 294 318 335 335 350 342 6 354 333
2 354 357 351 0 360 4 1 5 7 12 11 17 34 7 9 9 16 320 317 295 26 39 32 11 11 275 264 261 261 263 305 310 323 330 307 321 331 336 332 322 10 13 15 345
343 347 347 344 352 356 359 2 1 359 356 359 13 3 12 14 18 4 300 265 15 30 19 24 1 283 264 266 270 280 338 5 5 331 317 324 329 340 350 347 342 359 11 20 334
346 344 349 344 346 351 357 350 344 337 351 4 353 353 360 358 335 256 258 266 267 287 6 16 17 309 276 275 281 351 65 360 0 349 343 328 327 318 329 321 353 347 2 329 322